User: anonymous   Login
Location: Allos
(44.2333°N, 6.6333°E)
Time: 15:02:35
(UTC+00:00)
Language:

OE (NEXTSAT) - Orbit

View from above orbital plane
View from above orbital plane
View from above satellite
View from above satellite

Ground track
Ground track

The orbit data is extracted from the following two-line orbital elements,

1 30774U 07006C   21062.77790951  .00004745  00000-0  10590-3 0  9998
2 30774  46.0006  92.1808 0006755 292.0903  67.9284 15.45111880780921
Epoch (UTC): 03 March 2021 18:40:11
Eccentricity: 0.0006755
inclination: 46.0006°
perigee height: 426 km
apogee height: 435 km
right ascension of ascending node: 92.1808°
argument of perigee: 292.0903°
revolutions per day: 15.45111880
mean anomaly at epoch: 67.9284°
orbit number at epoch: 78092

The dashed part of the orbit path shows where the satellite is in the earth's shadow,  

DLR